Weather History for Freeport, IL

Change the Weather History Date:

Sunday, November 20, 2011

  Actual Average Record
Temperature  
Mean Temperature 37 °F -  
Max Temperature 42 °F 47 °F 65 °F (1975)
Min Temperature 29 °F 27 °F 7 °F (2014)
Degree Days  
Heating Degree Days 28    
Moisture  
Dew Point 31 °F    
Average Humidity 80    
Maximum Humidity 87    
Minimum Humidity 70    
Precipitation  
Precipitation 0.00 in - - ()
Sea Level Pressure  
Sea Level Pressure 30.23 in    
Wind  
Wind Speed 10 mph (North)    
Max Wind Speed 20 mph    
Max Gust Speed 25 mph    
Visibility 10 miles    
Events      
Averages and records for this station are not official NWS values.
T = Trace of Precipitation, MM = Missing Value Source: NWS Daily Summary

Daily Weather History Graph

Daily Weather History Graph

Search for Another Location

Airport:

Trip Planner

Search our weather history database for the weather conditions in past years. The results will help you decide how hot, cold, wet, or windy it might be!

Date:

Astronomy

Nov. 20, 2011 Rise Set
Actual Time 6:54 AM CST 4:32 PM CST
Civil Twilight 6:24 AM CST 5:03 PM CST
Nautical Twilight 5:49 AM CST 5:37 PM CST
Astronomical Twilight 5:16 AM CST 6:10 PM CST
Moon 1:17 AM CST (11/20) 1:26 PM CST (11/20)
Length of Visible Light 10h 39m
Length of Day
9h 38m
Waning Crescent, 27% of the Moon is Illuminated
Nov 20
Waning Crescent
Nov 25
New
Dec 2
First Quarter
Dec 10
Full
Dec 17
Last Quarter

Hourly Weather History & Observations

Time (CST) Temp. Windchill Dew Point Humidity Pressure Visibility Wind Dir Wind Speed Gust Speed Precip Events Conditions
12:15 AM 42.8 °F 35.8 °F 37.4 °F 81% 29.96 in 10.0 mi West 13.8 mph 20.7 mph N/A   Overcast
12:35 AM 41.9 °F 33.1 °F 36.5 °F 81% 29.98 in 10.0 mi West 19.6 mph 25.3 mph N/A   Overcast
12:55 AM 40.1 °F 31.3 °F 35.1 °F 82% 30.00 in 10.0 mi West 17.3 mph 21.9 mph N/A   Overcast
1:15 AM 39.2 °F 29.8 °F 34.7 °F 84% 30.02 in 10.0 mi West 18.4 mph 24.2 mph N/A   Overcast
1:35 AM 37.0 °F 28.5 °F 33.1 °F 86% 30.03 in 10.0 mi West 13.8 mph 21.9 mph N/A   Overcast
1:55 AM 36.7 °F 28.0 °F 32.5 °F 85% 30.06 in 10.0 mi WNW 13.8 mph 23.0 mph N/A   Overcast
2:15 AM 36.7 °F 28.4 °F 32.4 °F 84% 30.06 in 10.0 mi WNW 12.7 mph 19.6 mph N/A   Overcast
2:35 AM 36.7 °F 28.0 °F 32.5 °F 85% 30.08 in 10.0 mi NW 13.8 mph 17.3 mph N/A   Overcast
2:55 AM 36.7 °F 28.9 °F 32.9 °F 86% 30.09 in 10.0 mi WNW 11.5 mph - N/A   Overcast
3:15 AM 36.7 °F 29.9 °F 32.9 °F 86% 30.10 in 10.0 mi WNW 9.2 mph 17.3 mph N/A   Overcast
3:35 AM 36.7 °F 29.9 °F 32.9 °F 86% 30.11 in 10.0 mi WNW 9.2 mph - N/A   Overcast
3:55 AM 36.7 °F 31.2 °F 32.9 °F 86% 30.13 in 10.0 mi WNW 6.9 mph - N/A   Overcast
4:15 AM 36.7 °F 32.0 °F 32.9 °F 86% 30.14 in 10.0 mi WNW 5.8 mph - N/A   Overcast
4:35 AM 36.7 °F 32.0 °F 32.4 °F 84% 30.14 in 10.0 mi NW 5.8 mph - N/A   Overcast
4:55 AM 36.7 °F 31.2 °F 32.0 °F 83% 30.16 in 10.0 mi NW 6.9 mph - N/A   Overcast
5:15 AM 37.4 °F 33.8 °F 32.0 °F 81% 30.17 in 10.0 mi NNW 4.6 mph - N/A   Overcast
5:35 AM 36.7 °F 32.0 °F 32.0 °F 83% 30.17 in 10.0 mi NNW 5.8 mph - N/A   Overcast
5:55 AM 36.7 °F 32.9 °F 32.0 °F 83% 30.18 in 10.0 mi NNW 4.6 mph - N/A   Overcast
6:35 AM 36.7 °F 31.2 °F 32.0 °F 83% 30.19 in 10.0 mi NNW 6.9 mph - N/A   Overcast
6:55 AM 36.7 °F 32.0 °F 32.0 °F 83% 30.19 in 10.0 mi NNW 5.8 mph - N/A   Overcast
7:15 AM 36.7 °F 34.1 °F 31.8 °F 83% 30.21 in 10.0 mi North 3.5 mph - N/A   Overcast
7:35 AM 37.4 °F 32.1 °F 32.0 °F 81% 30.22 in 10.0 mi NNW 6.9 mph - N/A   Overcast
7:55 AM 36.7 °F 32.0 °F 31.3 °F 81% 30.22 in 10.0 mi NNW 5.8 mph - N/A   Overcast
8:15 AM 36.7 °F 29.4 °F 31.1 °F 80% 30.23 in 10.0 mi North 10.4 mph - N/A   Overcast
8:35 AM 37.4 °F 30.8 °F 30.2 °F 75% 30.25 in 10.0 mi NNW 9.2 mph - N/A   Overcast
8:55 AM 36.7 °F 31.2 °F 30.6 °F 78% 30.26 in 10.0 mi North 6.9 mph - N/A   Scattered Clouds
9:15 AM 36.7 °F 32.0 °F 30.0 °F 77% 30.28 in 10.0 mi NNW 5.8 mph - N/A   Mostly Cloudy
9:35 AM 36.9 °F 31.4 °F 30.6 °F 78% 30.27 in 10.0 mi NNW 6.9 mph - N/A   Overcast
9:55 AM 38.3 °F 33.2 °F 31.3 °F 76% 30.28 in 10.0 mi North 6.9 mph - N/A   Mostly Cloudy
10:15 AM 36.7 °F 31.2 °F 29.8 °F 76% 30.29 in 10.0 mi NW 6.9 mph - N/A   Mostly Cloudy
10:35 AM 37.4 °F 32.1 °F 30.4 °F 76% 30.29 in 10.0 mi North 6.9 mph - N/A   Mostly Cloudy
10:55 AM 37.6 °F 31.6 °F 30.4 °F 75% 30.29 in 10.0 mi North 8.1 mph - N/A   Overcast
11:15 AM 37.8 °F 31.8 °F 30.7 °F 76% 30.29 in 10.0 mi North 8.1 mph - N/A   Overcast
11:35 AM 39.2 °F 34.2 °F 30.2 °F 70% 30.29 in 10.0 mi NNE 6.9 mph - N/A   Overcast
11:55 AM 38.5 °F 34.1 °F 30.9 °F 74% 30.29 in 10.0 mi NNE 5.8 mph - N/A   Overcast
12:15 PM 38.5 °F 33.4 °F 30.6 °F 73% 30.29 in 10.0 mi NNE 6.9 mph - N/A   Overcast
12:35 PM 39.2 °F 35.9 °F 30.7 °F 72% 30.29 in 10.0 mi NNE 4.6 mph - N/A   Overcast
12:55 PM 39.2 °F 34.2 °F 32.0 °F 75% 30.29 in 10.0 mi NNE 6.9 mph - N/A   Overcast
1:15 PM 39.2 °F 33.6 °F 30.4 °F 71% 30.28 in 10.0 mi NE 8.1 mph - N/A   Overcast
1:35 PM 39.2 °F 34.2 °F 30.7 °F 72% 30.28 in 10.0 mi North 6.9 mph - N/A   Overcast
1:55 PM 39.2 °F 33.6 °F 30.7 °F 72% 30.28 in 10.0 mi North 8.1 mph - N/A   Overcast
2:15 PM 39.2 °F 35.0 °F 30.7 °F 72% 30.28 in 10.0 mi North 5.8 mph - N/A   Mostly Cloudy
2:55 PM 39.2 °F 34.2 °F 30.4 °F 71% 30.30 in 10.0 mi NNE 6.9 mph - N/A   Mostly Cloudy
3:15 PM 39.2 °F 35.0 °F 30.6 °F 71% 30.30 in 10.0 mi NE 5.8 mph - N/A   Scattered Clouds
3:35 PM 38.1 °F 32.9 °F 30.0 °F 73% 30.31 in 10.0 mi NE 6.9 mph - N/A   Scattered Clouds
3:55 PM 37.0 °F 33.3 °F 29.7 °F 75% 30.31 in 10.0 mi North 4.6 mph - N/A   Mostly Cloudy
4:15 PM 36.7 °F 32.9 °F 29.7 °F 76% 30.32 in 10.0 mi NNE 4.6 mph - N/A   Scattered Clouds
4:35 PM 36.7 °F 34.1 °F 30.2 °F 77% 30.32 in 10.0 mi North 3.5 mph - N/A   Scattered Clouds
4:55 PM 36.7 °F 32.0 °F 30.6 °F 78% 30.31 in 10.0 mi NNE 5.8 mph - N/A   Mostly Cloudy
5:15 PM 34.2 °F 28.2 °F 28.9 °F 81% 30.32 in 10.0 mi NNE 6.9 mph - N/A   Scattered Clouds
5:35 PM 32.9 °F 28.5 °F 27.7 °F 81% 30.33 in 10.0 mi NE 4.6 mph - N/A   Clear
5:55 PM 32.2 °F 26.7 °F 27.3 °F 82% 30.32 in 10.0 mi NE 5.8 mph - N/A   Clear
6:15 PM 32.0 °F 25.6 °F 27.5 °F 83% 30.32 in 10.0 mi NE 6.9 mph - N/A   Clear
6:35 PM 32.0 °F 24.8 °F 27.9 °F 85% 30.31 in 10.0 mi NNE 8.1 mph - N/A   Clear
6:55 PM 32.0 °F 24.8 °F 27.5 °F 83% 30.31 in 10.0 mi NNE 8.1 mph - N/A   Clear
7:15 PM 32.0 °F 24.8 °F 27.5 °F 83% 30.31 in 10.0 mi North 8.1 mph - N/A   Clear
7:35 PM 32.0 °F 24.8 °F 28.0 °F 85% 30.31 in 10.0 mi NNE 8.1 mph - N/A   Clear
7:55 PM 32.0 °F 27.5 °F 28.4 °F 87% 30.32 in 10.0 mi NNE 4.6 mph - N/A   Clear
8:15 PM 32.0 °F 27.5 °F 28.2 °F 86% 30.33 in 10.0 mi NE 4.6 mph - N/A   Clear
8:35 PM 32.0 °F 28.7 °F 28.2 °F 86% 30.34 in 10.0 mi NE 3.5 mph - N/A   Clear
8:55 PM 29.3 °F 23.2 °F 25.9 °F 87% 30.33 in 10.0 mi NNE 5.8 mph - N/A   Clear
9:15 PM 29.3 °F 25.6 °F 26.2 °F 88% 30.33 in 10.0 mi NE 3.5 mph - N/A   Scattered Clouds
9:35 PM 29.3 °F 24.3 °F 26.2 °F 88% 30.33 in 10.0 mi ENE 4.6 mph - N/A   Scattered Clouds
9:55 PM 29.3 °F 25.6 °F 26.2 °F 88% 30.33 in 10.0 mi NE 3.5 mph - N/A   Scattered Clouds
10:15 PM 29.3 °F 25.6 °F 26.2 °F 88% 30.33 in 10.0 mi NNE 3.5 mph - N/A   Scattered Clouds
10:35 PM 29.3 °F - 26.2 °F 88% 30.33 in 10.0 mi Calm Calm - N/A   Scattered Clouds
10:55 PM 28.8 °F - 25.5 °F 88% 30.32 in 10.0 mi Calm Calm - N/A   Clear
11:15 PM 28.6 °F - 25.9 °F 90% 30.32 in 10.0 mi Calm Calm - N/A   Clear
11:35 PM 29.3 °F - 26.4 °F 89% 30.33 in 10.0 mi Calm Calm - N/A   Mostly Cloudy
11:55 PM 29.3 °F 25.6 °F 26.2 °F 88% 30.33 in 10.0 mi NNE 3.5 mph - N/A   Scattered Clouds